FW5674 Weather Reports


time (UTC)temp
F
wind
direction
speed
knots
gust
knots
rain 1hr
in
rain 24hr
in
rain mn
in
humidity
%
barometer
mb
20260504024539 62 0 0.9 4.3 0.00 0.00 0.00 56 1008.3
20260504023036 62 360 0.9 4.3 0.00 0.00 0.00 55 1008.2
20260504021536 63 360 0.9 4.3 0.00 0.00 0.00 54 1008.1
20260504020037 63 0 0.0 3.5 0.00 0.00 0.00 53 1007.9
20260504014539 64 360 0.9 5.2 0.00 0.00 0.00 52 1007.8
20260504013042 64 360 0.9 7.0 0.00 0.00 0.00 50 1007.5
20260504011542 65 187 1.7 8.7 0.00 0.00 0.00 49 1007.4
20260504010037 66 360 1.7 4.3 0.00 0.00 0.00 48 1007.5
20260504004536 66 360 1.7 9.6 0.00 0.00 0.00 47 1007.6
20260504003038 67 360 1.7 10.4 0.00 0.00 0.00 46 1007.5
20260504001542 67 360 1.7 8.7 0.00 0.00 0.00 45 1007.5
20260504000041 67 360 1.7 10.4 0.00 0.00 0.00 44 1007.3
20260503234545 67 182 0.9 7.0 0.00 0.00 0.00 44 1007.5
20260503233037 68 360 0.9 8.7 0.00 0.00 0.00 43 1007.5
20260503231542 69 360 2.6 10.4 0.00 0.00 0.00 41 1007.5
20260503230043 68 360 2.6 11.3 0.00 0.00 0.00 41 1007.8
20260503224540 68 197 2.6 11.3 0.00 0.00 0.00 41 1008.0
20260503223039 68 360 3.5 13.9 0.00 0.00 0.00 41 1008.3
20260503221536 68 360 2.6 13.0 0.00 0.00 0.00 41 1008.4
20260503220045 67 360 4.3 12.2 0.00 0.00 0.00 40 1008.5
20260503214540 67 360 2.6 18.2 0.00 0.00 0.00 40 1008.7
20260503213042 68 360 4.3 16.5 0.00 0.00 0.00 38 1008.8
20260503211538 68 360 2.6 15.6 0.00 0.00 0.00 37 1009.2
20260503210038 68 175 4.3 17.4 0.00 0.00 0.00 37 1009.3
20260503204534 68 360 3.5 12.2 0.00 0.00 0.00 38 1009.7
20260503203041 67 360 5.2 16.5 0.00 0.00 0.00 39 1009.9
20260503201541 66 360 3.5 13.9 0.00 0.00 0.00 42 1010.2
20260503200043 66 360 6.1 13.0 0.00 0.00 0.00 43 1010.5
20260503194538 65 360 4.3 10.4 0.00 0.00 0.00 46 1010.5
20260503193036 63 360 3.5 11.3 0.00 0.00 0.00 48 1010.9
20260503191540 61 360 5.2 13.0 0.00 0.00 0.00 48 1011.2
20260503190041 61 360 3.5 16.5 0.00 0.00 0.00 51 1011.3
20260503184553 59 360 4.3 10.4 0.00 0.00 0.00 53 1011.7
20260503183055 57 360 3.5 12.2 0.00 0.00 0.00 56 1012.0
20260503181541 57 182 3.5 13.9 0.00 0.00 0.00 57 1012.4
20260503180040 56 360 2.6 17.4 0.00 0.00 0.00 58 1013.4
20260503174539 56 360 5.2 12.2 0.00 0.00 0.00 60 1013.7
20260503173038 55 360 3.5 9.6 0.00 0.00 0.00 63 1014.3
20260503171535 54 360 2.6 12.2 0.00 0.00 0.00 66 1014.6
20260503081554 46 0 0.0 2.6 0.00 0.00 0.00 57 1016.5
20260503071540 47 360 0.9 7.0 0.00 0.00 0.00 55 1016.8
20260503054547 47 360 0.9 4.3 0.00 0.00 0.00 54 1017.4
20260503053039 47 360 0.9 3.5 0.00 0.00 0.00 54 1017.6
20260503051535 47 0 0.0 1.7 0.00 0.00 0.00 55 1017.7
20260503050038 47 360 0.0 3.5 0.00 0.00 0.00 55 1017.9
20260503044543 48 0 0.0 3.5 0.00 0.00 0.00 54 1017.8
20260503043043 48 0 0.0 2.6 0.00 0.00 0.00 54 1018.0
20260503041545 48 360 0.0 4.3 0.00 0.00 0.00 54 1017.9
20260503040041 48 0 0.0 1.7 0.00 0.00 0.00 54 1018.0
20260503034542 48 0 0.0 2.6 0.00 0.00 0.00 54 1018.0
20260503033058 48 0 0.0 1.7 0.00 0.00 0.00 54 1018.1
20260503031552 48 0 0.0 0.9 0.00 0.00 0.00 55 1018.2
20260503030040 48 0 0.0 1.7 0.00 0.00 0.00 55 1018.3